[[{"header":{"parameterUnit":"m.s-1","parameterCategory":1,"la1":30.2991,"la2":30.254,"lo1":-89.0895,"lo2":-89.0444,"dy":0.0017,"dx":0.0017,"nx":28,"ny":28,"refTime":"2024-07-28T09:00:00:Z","depth":0,"parameterNumber":2,"parameterNumberName":"U-component_of_WINDS"},"data":[0,0,0,0,0,0,0,0,0,0,0,0,0,0,0,0,0,0,0,0,0,0,0,0,0,0,0,0,0,0,0,0,0,0,0,0,0,0,0,0,0,0,0,0,0,0,0,0,0,0,0,0,0,0,0,0,0,0,1.8585,1.8586,0,1.8717,1.8718,1.872,1.8756,1.8755,1.8754,1.8753,1.8893,1.8898,1.8902,0,0,0,0,0,0,0,0,0,0,0,0,0,1.8368,1.8372,1.8585,1.8586,1.8588,1.8717,1.8718,1.872,1.8756,1.8755,1.8754,1.8753,1.8892,1.8897,1.8902,0,0,0,0,0,0,0,0,0,0,0,0,0,1.8477,1.8373,1.8584,1.8621,1.8626,1.8716,1.8719,1.8721,1.8756,1.8755,1.8754,1.8752,1.889,1.8896,1.8903,1.8968,0,0,1.8924,1.8926,0,0,0,0,0,0,0,0,1.8471,1.8485,1.8614,1.8619,1.8624,1.8718,1.8693,1.8804,1.8756,1.8707,1.8753,1.8752,1.8836,1.8847,1.8875,1.8975,1.8981,1.8924,1.8928,1.8931,1.8933,0,0,0,0,0,0,0,1.8464,1.848,1.8637,1.8616,1.8622,1.8633,1.8647,1.8715,1.8777,1.8711,1.8714,1.8729,1.8839,1.8868,1.8878,1.8983,1.8924,1.893,1.8934,1.8937,1.9144,1.9145,0,0,0,0,0,0,1.8449,1.8473,1.8633,1.8641,1.8543,1.8637,1.8653,1.8689,1.8776,1.8788,1.873,1.873,1.8857,1.8871,1.8883,1.8966,1.8931,1.8937,1.8941,1.9142,1.9144,1.9146,0,0,0,0,0,0,1.8444,1.8463,1.8628,1.8558,1.858,1.8642,1.8683,1.8693,1.8722,1.879,1.8802,1.8748,1.8857,1.8874,1.8947,1.8971,1.894,1.8946,1.9141,1.9143,1.9145,1.913,0,0,0,0,0,0,1.8438,1.8461,1.8485,1.8558,1.8583,1.8687,1.8684,1.8696,1.8733,1.8735,1.881,1.8822,1.8857,1.8936,1.8953,1.898,1.8952,1.9139,1.9142,1.9144,1.9129,1.9132,1.9134,0,0,0,0,0,1.843,1.8476,1.8486,1.8505,1.8614,1.8688,1.8703,1.8741,1.8735,1.876,1.8804,1.8819,1.8966,1.8944,1.8963,1.8992,1.9137,1.9141,1.9144,1.9128,1.9131,1.9134,0,0,0,0,0,0,1.8406,1.8487,1.8498,1.8569,1.8621,1.8694,1.8727,1.8744,1.88,1.8799,1.8847,1.8864,1.8933,1.897,1.8944,1.906,1.9052,1.9059,1.9033,1.9037,1.9039,1.9029,1.8957,0,0,0,0,0,1.8408,1.846,1.8529,1.8585,1.861,1.8664,1.8698,1.8723,1.878,1.8802,1.8852,1.8907,1.8966,1.9003,1.9061,1.9135,1.9152,1.9164,1.9167,1.9169,1.9174,1.9217,1.9223,1.9157,1.9157,1.9157,0,0,1.8415,1.8465,1.8495,1.8581,1.8625,1.8679,1.8683,1.8739,1.878,1.8812,1.8883,1.8921,1.8986,1.906,1.9094,1.9092,1.9197,1.9173,1.9174,1.9179,1.9221,1.9227,1.9233,1.9159,1.9159,1.9158,0,0,1.8454,1.8497,1.8549,1.8592,1.8657,1.8693,1.8706,1.8776,1.8802,1.8874,1.8899,1.8949,1.9049,1.9095,1.9131,1.9189,1.9205,1.9206,1.922,1.9261,1.9266,1.9271,1.9292,1.9299,1.9212,1.9212,1.9212,0,1.8454,1.8535,1.8574,1.8629,1.8667,1.8697,1.8751,1.8791,1.8873,1.8899,1.8895,1.9021,1.9067,1.9152,1.9166,1.9194,1.9211,1.9198,1.9262,1.9267,1.9272,1.9293,1.9301,1.9212,1.9212,1.9212,1.9212,0,1.8532,1.8588,1.8622,1.8698,1.874,1.8795,1.8844,1.8882,1.8904,1.894,1.9014,1.907,1.914,1.9162,1.9185,1.9251,1.9247,1.9252,1.9245,1.9278,1.9298,1.9306,1.9211,1.9211,1.9211,1.9211,0,0,1.8559,1.8656,1.8668,1.8704,1.8778,1.8823,1.888,1.8947,1.8979,1.9034,1.9084,1.9168,1.9173,1.9214,1.9242,1.9278,1.9321,1.9279,1.9281,1.9285,1.9398,1.9393,1.9402,1.9332,1.9334,1.9335,1.9392,0,1.8608,1.8708,1.8745,1.8828,1.8881,1.891,1.896,1.9012,1.9048,1.9099,1.914,1.9199,1.9201,1.9226,1.9263,1.9307,1.9344,1.9304,1.938,1.9382,1.9362,1.9412,1.9408,1.9459,1.94,1.9402,1.9403,0,1.8677,1.8732,1.882,1.8889,1.8913,1.8956,1.9021,1.9069,1.913,1.9154,1.92,1.9226,1.9288,1.9277,1.9364,1.9336,1.9369,1.9396,1.9399,1.9407,1.9394,1.9422,1.9476,1.9483,1.9415,1.9414,1.9413,0,1.8688,1.8785,1.885,1.8879,1.8961,1.8991,1.9027,1.9086,1.9124,1.9182,1.9207,1.9271,1.9307,1.9357,1.94,1.9388,1.9483,1.9476,1.9506,1.9505,1.9524,1.9522,1.9584,1.9546,1.9546,1.9545,1.9545,0,1.8739,1.8791,1.8856,1.8896,1.8956,1.9,1.9059,1.9097,1.9149,1.9198,1.9229,1.9274,1.9329,1.9382,1.9416,1.9483,1.9499,1.9521,1.953,1.9518,1.9516,1.9541,1.9538,1.9548,1.9547,1.9547,1.9546,0,1.8761,1.8806,1.8879,1.895,1.897,1.9011,1.9073,1.9114,1.9152,1.9213,1.9231,1.929,1.9354,1.9402,1.9486,1.951,1.9581,1.959,1.956,1.9564,1.9591,1.9588,1.9671,1.9685,1.9637,1.9638,1.9638,0,1.879,1.8831,1.8907,1.8941,1.8976,1.9031,1.907,1.9116,1.9155,1.9227,1.926,1.9326,1.9381,1.9483,1.9534,1.9599,1.961,1.9635,1.962,1.9607,1.961,1.9607,1.9612,1.9636,1.9637,1.9637,1.9637,0,1.8837,1.8857,1.8911,1.8974,1.9019,1.9071,1.9123,1.915,1.9205,1.9248,1.9313,1.9356,1.9441,1.9507,1.9576,1.9615,1.9636,1.9641,1.9652,1.964,1.9621,1.9632,1.9565,1.9639,1.9639,1.9639,1.9639,1.9639,1.8863,1.8901,1.8961,1.902,1.9064,1.9113,1.9154,1.9197,1.9252,1.9324,1.9348,1.9415,1.9476,1.9572,1.9611,1.9666,1.9666,1.9681,1.9685,1.9688,1.9687,1.9613,1.9679,1.9679,1.9679,1.9679,1.9679,0,1.8912,1.8951,1.9006,1.9077,1.9125,1.9139,1.9198,1.9237,1.9296,1.935,1.9404,1.9479,1.9543,1.96,1.9667,1.97,1.9711,1.9716,1.9714,1.9723,1.9683,1.9667,1.9706,1.9706,1.9706,1.9706,1.9706,1.9706,1.8942,1.9007,1.9035,1.9123,1.9163,1.9229,1.9261,1.9306,1.935,1.9432,1.9485,1.9522,1.9577,1.9649,1.9709,1.9724,1.9747,1.975,1.9767,1.9729,1.9725,1.9722,1.9708,1.9754,1.9754,1.9803,1.9803,1.9803]},{"header":{"parameterUnit":"m.s-1","parameterCategory":1,"la1":30.2991,"la2":30.254,"lo1":-89.0895,"lo2":-89.0444,"dy":0.0017,"dx":0.0017,"nx":28,"ny":28,"refTime":"2024-07-28T09:00:00:Z","depth":0,"parameterNumber":3,"parameterNumberName":"V-component_of_WINDS"},"data":[0,0,0,0,0,0,0,0,0,0,0,0,0,0,0,0,0,0,0,0,0,0,0,0,0,0,0,0,0,0,0,0,0,0,0,0,0,0,0,0,0,0,0,0,0,0,0,0,0,0,0,0,0,0,0,0,0,0,3.5434,3.5435,0,3.548,3.5481,3.5481,3.5484,3.5484,3.5483,3.5483,3.5527,3.5529,3.5531,0,0,0,0,0,0,0,0,0,0,0,0,0,3.5344,3.5345,3.5434,3.5435,3.5435,3.548,3.5481,3.5482,3.5484,3.5484,3.5483,3.5482,3.5527,3.5529,3.5531,0,0,0,0,0,0,0,0,0,0,0,0,0,3.5386,3.5346,3.5434,3.5442,3.5443,3.548,3.5481,3.5482,3.5484,3.5484,3.5483,3.5482,3.5526,3.5529,3.5531,3.5562,0,0,3.5539,3.554,0,0,0,0,0,0,0,0,3.5383,3.5389,3.5441,3.5442,3.5443,3.5476,3.5465,3.5509,3.5485,3.5469,3.5483,3.5482,3.5511,3.5514,3.5525,3.5564,3.5566,3.5539,3.554,3.5541,3.5542,0,0,0,0,0,0,0,3.538,3.5387,3.5452,3.5441,3.5443,3.5442,3.5447,3.5473,3.5493,3.547,3.547,3.5476,3.5511,3.5522,3.5526,3.5567,3.5539,3.5541,3.5543,3.5544,3.5629,3.563,0,0,0,0,0,0,3.5376,3.5384,3.5451,3.5454,3.5411,3.5444,3.545,3.5466,3.5493,3.5497,3.5477,3.5476,3.5518,3.5523,3.5527,3.5563,3.5541,3.5544,3.5545,3.5628,3.5629,3.563,0,0,0,0,0,0,3.5374,3.5382,3.5449,3.5419,3.5428,3.5447,3.5465,3.5467,3.5478,3.5498,3.5501,3.5485,3.5518,3.5524,3.5553,3.5564,3.5545,3.5547,3.5628,3.5629,3.563,3.5635,0,0,0,0,0,0,3.5372,3.5382,3.5395,3.542,3.5429,3.5475,3.5466,3.5469,3.5483,3.5483,3.5506,3.551,3.5518,3.5549,3.5555,3.5567,3.5549,3.5627,3.5628,3.5629,3.5634,3.5636,3.5638,0,0,0,0,0,3.5369,3.5395,3.5396,3.5404,3.5447,3.5476,3.5482,3.5491,3.5484,3.5497,3.5508,3.5509,3.5562,3.5552,3.5559,3.5572,3.5626,3.5628,3.5629,3.5633,3.5636,3.5638,0,0,0,0,0,0,3.5372,3.5399,3.54,3.5436,3.5453,3.5477,3.5493,3.5494,3.5514,3.5513,3.5523,3.5528,3.5556,3.5567,3.5555,3.5601,3.5593,3.5596,3.5593,3.5596,3.5598,3.5595,3.5551,0,0,0,0,0,3.5377,3.54,3.5421,3.5451,3.546,3.5475,3.5488,3.5493,3.5512,3.552,3.5534,3.5551,3.5571,3.5584,3.5604,3.5635,3.5639,3.5648,3.565,3.5651,3.5654,3.5667,3.5671,3.5636,3.5636,3.5636,0,0,3.5388,3.5405,3.5419,3.5452,3.5466,3.5487,3.5481,3.5505,3.552,3.5523,3.555,3.5561,3.5581,3.561,3.5623,3.562,3.5664,3.5654,3.5655,3.5656,3.567,3.5673,3.5676,3.5637,3.5637,3.5637,0,0,3.5417,3.5434,3.5458,3.5472,3.5494,3.5503,3.5509,3.5531,3.5538,3.5566,3.5567,3.5584,3.562,3.5633,3.5644,3.5674,3.5674,3.568,3.5691,3.5704,3.5707,3.5709,3.5717,3.5721,3.5682,3.5682,3.5682,0,3.5427,3.5461,3.5471,3.5493,3.5506,3.5509,3.5532,3.5545,3.5572,3.558,3.5576,3.5618,3.5631,3.5662,3.5668,3.5678,3.5683,3.5677,3.5706,3.5708,3.5711,3.5719,3.5722,3.5683,3.5683,3.5683,3.5683,0,3.547,3.5493,3.551,3.5535,3.555,3.5573,3.5584,3.5597,3.56,3.5609,3.5635,3.5651,3.5673,3.568,3.5684,3.571,3.5707,3.5704,3.5696,3.5714,3.5722,3.5725,3.5683,3.5683,3.5683,3.5683,0,0,3.5506,3.5533,3.5539,3.5549,3.5571,3.5588,3.5609,3.563,3.564,3.5658,3.5674,3.5702,3.5699,3.5711,3.5716,3.5728,3.5746,3.5723,3.5724,3.5725,3.5773,3.5774,3.5777,3.5747,3.5747,3.5748,3.577,0,3.5536,3.5575,3.5582,3.5615,3.5634,3.5635,3.5653,3.5668,3.5676,3.5692,3.57,3.5719,3.5714,3.5721,3.5733,3.5742,3.5756,3.574,3.576,3.5761,3.5754,3.5782,3.5784,3.5804,3.5773,3.5774,3.5774,0,3.5577,3.5594,3.5629,3.5645,3.5653,3.567,3.5687,3.5704,3.5719,3.5723,3.5735,3.5738,3.5757,3.5748,3.5774,3.5763,3.5771,3.5776,3.5777,3.5779,3.5768,3.5782,3.5811,3.5814,3.578,3.5779,3.5779,0,3.5596,3.5628,3.5652,3.566,3.5681,3.5691,3.57,3.5715,3.5725,3.574,3.5747,3.5764,3.5773,3.5785,3.5792,3.5785,3.5816,3.5808,3.5818,3.5818,3.5824,3.5824,3.5854,3.5832,3.5832,3.5832,3.5832,0,3.5628,3.5648,3.566,3.5675,3.5696,3.5703,3.5724,3.5733,3.5745,3.5759,3.5762,3.5775,3.5783,3.5797,3.5802,3.582,3.5825,3.5827,3.5828,3.5827,3.5826,3.5832,3.583,3.5832,3.5832,3.5832,3.5832,0,3.5653,3.5662,3.5687,3.5703,3.5708,3.5723,3.5736,3.5749,3.5755,3.5774,3.5778,3.5789,3.5805,3.5812,3.5832,3.5835,3.5856,3.5857,3.5851,3.5851,3.586,3.5859,3.5894,3.5898,3.5875,3.5875,3.5875,0,3.5672,3.5687,3.5704,3.5714,3.5723,3.5739,3.575,3.5756,3.5767,3.5783,3.5793,3.581,3.5823,3.5848,3.5857,3.5871,3.5871,3.5882,3.5873,3.587,3.5869,3.5867,3.5868,3.5884,3.5884,3.5884,3.5884,0,3.5704,3.5707,3.5723,3.5738,3.5751,3.5764,3.5776,3.5784,3.5792,3.5803,3.582,3.583,3.5849,3.5864,3.5879,3.5886,3.5886,3.5887,3.589,3.5888,3.5883,3.5884,3.5854,3.5886,3.5886,3.5886,3.5886,3.5886,3.5726,3.5738,3.5751,3.5767,3.5777,3.5788,3.58,3.5807,3.5821,3.5837,3.584,3.5857,3.5868,3.5887,3.5895,3.5907,3.5904,3.5909,3.591,3.591,3.591,3.5882,3.591,3.591,3.591,3.591,3.591,0,3.5756,3.5764,3.5778,3.5795,3.5807,3.5806,3.5818,3.5828,3.5843,3.5854,3.5866,3.5883,3.5897,3.5906,3.5919,3.5927,3.5927,3.593,3.5929,3.593,3.5913,3.5908,3.5929,3.5929,3.5929,3.5929,3.5929,3.5929,3.5773,3.5793,3.5797,3.582,3.5828,3.5844,3.5851,3.586,3.5869,3.5888,3.5899,3.5905,3.5914,3.5927,3.5939,3.5941,3.5945,3.5948,3.595,3.5934,3.5931,3.5929,3.5925,3.595,3.595,3.5966,3.5966,3.5966]}]]